Simultaneous Nadir Overpasses (SNOs) Predictions

Prediction of SNOs between GOES-14 and NOAA-20 Satellite Orbit:

Table of predicted SNOs for the next 14.0 days since TLE Epoch: 8/14/2020
Index Date Time (GOES-14) GOES-14 Lat,Lon NOAA-20 Lat,Lon Distance(km) Time Diff (sec)
1 08/14/2020 20:33:16 0.45,-104.63 -0.17,-107.44 320.52 80
2 08/15/2020 20:17:10 0.44,-104.64 0.83,-102.91 197.12 80
3 08/17/2020 08:38:56 -0.47,-104.47 0.38,-108.17 421.73 80
4 08/18/2020 08:17:31 -0.46,-104.47 -0.62,-103.63 94.88 80
5 08/19/2020 20:39:27 0.48,-104.64 -0.51,-108.94 491.45 80
6 08/20/2020 20:23:23 0.47,-104.65 0.54,-104.42 26.45 80
7 08/23/2020 08:26:24 -0.48,-104.50 -0.34,-105.15 73.48 80
8 08/24/2020 08:04:58 -0.47,-104.50 -1.34,-100.61 443.08 80
9 08/25/2020 20:26:55 0.49,-104.66 0.20,-105.92 143.98 80
10 08/26/2020 20:10:49 0.48,-104.67 1.21,-101.39 373.55 80
11 08/28/2020 08:32:35 -0.50,-104.53 -0.00,-106.65 242.30 80
